Preview of NWS' New Version of Forecast
This preview is not operational and should not be used for support decisions.

Regional Weather Roundup (RWR)

Issued by National Weather Service (NWS)

                            
000
ASUS43 KMKX 171400
RWRWI 

WISCONSIN REGIONAL WEATHER ROUNDUP
NATIONAL WEATHER SERVICE MILWAUKEE/SULLIVAN WI
800 AM CST SUN FEB 17 2019

NOTE: "FAIR" INDICATES FEW OR NO CLOUDS BELOW 12,000 FEET WITH NO
SIGNIFICANT WEATHER AND/OR OBSTRUCTIONS TO VISIBILITY.

WIZ001-002-006>008-014>016-023>028-171500-
NORTHWEST WISCONSIN
  
CITY           SKY/WX    TMP DP  RH WIND       PRES   REMARKS
SUPERIOR ARPT  FAIR      10   8  90 E5        30.15R WCI   2          
ASHLAND        CLOUDY     6   4  91 E3        30.15R                  
HAYWARD        FAIR       6   3  87 NE6       30.08R WCI  -4          
SIREN          CLOUDY    14   9  79 NE7       30.08S WCI   4          
CUMBERLAND     CLOUDY    16  10  79 NE8       30.03R WCI   5          
RICE LAKE      CLOUDY    17  12  82 NE9       30.04R WCI   5          
CHETEK         CLOUDY    16  10  79 NE8       30.04R WCI   5          
LADYSMITH      CLOUDY    15  10  80 NE9       30.04S WCI   3          
EAU CLAIRE     NOT AVBL                                               
MENOMONIE      CLOUDY    15   8  76 NE9       30.02R WCI   3          
NEW RICHMOND   CLOUDY    18  11  75 NE8       30.02R WCI   7          
OSCEOLA        CLOUDY    19  14  81 NE12      30.06S WCI   6          
$$
 
WIZ003>005-009-010-017-018-171500-
NORTH CENTRAL WISCONSIN
  
CITY           SKY/WX    TMP DP  RH WIND       PRES   REMARKS
MANITOWISH WTR NOT AVBL                                               
ARBOR VITAE    FAIR      11   8  87 E5        30.04R WCI   3          
WOODRUFF       FAIR      11   8  87 E5        30.04R WCI   3          
RHINELANDER    CLOUDY    12   6  77 NE7       30.02R WCI   1          
EAGLE RIVER    CLOUDY     9   5  84 NE7       30.03S WCI  -2          
LAND O LAKES   FAIR       4   1  89 N3        30.06F                  
PHILLIPS       CLOUDY     9   6  88 NE7       30.03R WCI  -2          
TOMAHAWK       CLOUDY    10   7  87 NE6       30.02S WCI   0          
MEDFORD        CLOUDY    12   8  82 NE10      29.99R WCI  -1          
MERRILL        CLOUDY    14  10  82 E8        30.01R WCI   3          
$$
 
WIZ029-030-035-036-043>047-171500-
CENTRAL WISCONSIN
  
CITY           SKY/WX    TMP DP  RH WIND       PRES   REMARKS
WAUSAU         CLOUDY    16  10  77 NE10      29.99R WCI   4          
MOSINEE        CLOUDY    16  12  86 NE12      30.00R WCI   3          
MARSHFIELD     CLOUDY    17  12  80 E10       29.97R WCI   5          
STEVENS POINT  CLOUDY    15  11  85 NE10      29.99R WCI   2          
WAUPACA        CLOUDY    20  13  76 NE9       30.01R WCI   9          
WAUTOMA        CLOUDY    18  14  84 NE14      29.98S WCI   4          
WISC RAPIDS    CLOUDY    18  10  71 NE12      29.99R WCI   5          
CAMP DOUGLAS   NOT AVBL                                               
$$
 
WIZ011>013-019>022-031-037>040-048>050-171500-
NORTHEAST WISCONSIN
  
CITY           SKY/WX    TMP DP  RH WIND       PRES   REMARKS
ANTIGO         CLOUDY    13  10  85 NE10      30.00R WCI   0          
SHAWANO        CLOUDY    19  13  77 NE9G16    30.04S WCI   8          
OCONTO         CLOUDY    18  12  76 NE9       30.06S WCI   7          
STURGEON BAY   FLURRIES  22  17  81 E12       30.03F WCI  10          
GREEN BAY      CLOUDY    20  14  77 NE18      30.03R WCI   5          
MANITOWOC      CLOUDY    23  17  78 E15       30.02R WCI  10          
APPLETON       CLOUDY    19  10  68 NE8       29.97S WCI   9          
CLINTONVILLE   CLOUDY    18  11  76 NE8G16    30.02S WCI   7          
OSHKOSH        CLOUDY    19  15  84 NE9       29.98R WCI   8          
$$
 
WIZ032>034-041-042-053>061-171500-
SOUTHWEST WISCONSIN
  
CITY           SKY/WX    TMP DP  RH WIND       PRES   REMARKS
LA CROSSE      LGT SNOW  20  17  88 NW6       29.95S FOG     WCI  12  
SPARTA         SNOW      19  17  89 E5        29.96R VSB 1/4 WCI  12  
VIROQUA        CLOUDY    19  19  99 E15       29.88S VSB 1/2 WCI   5  
BOSCOBEL       LGT SNOW  22  18  85 NE5       29.91S FOG     WCI  16  
PRAIRIE DU CHI LGT SNOW  22  17  80 CALM      29.90S                  
PLATTEVILLE    CLOUDY    22  22 100 NE13      29.85F WCI  10          
$$

WIZ056-057-062-063-064-067-068-171500-
SOUTH CENTRAL WISCONSIN
  
CITY           SKY/WX    TMP DP  RH WIND       PRES   REMARKS
REEDSBURG      LGT SNOW  20  17  90 NE10      29.93R WCI   9          
BARABOO/DELLS  LGT SNOW  19  17  89 NE10      29.92S WCI   8          
LONE ROCK      LGT SNOW  23  20  88 NE9       29.91S VSB 3/4 WCI  13  
MINERAL POINT  LGT SNOW  25  25 100 NE10      29.85F WCI  15          
MADISON        LGT SNOW  23  20  88 E12       29.91S FOG     WCI  12  
MIDDLETON      CLOUDY    25  23  93 E8        29.90S WCI  16          
WATERTOWN      LGT SNOW  23  23 100 E9        29.91S VSB 3/4 WCI  13  
MONROE         LGT SNOW  24  22  93 MISG      29.85F                  
JANESVILLE     LGT SNOW  27  27 100 E9        29.90R WCI  17          
$$
 
WIZ051-052-058>065-066-070>072-171500-
SOUTHEAST WISCONSIN
  
CITY           SKY/WX    TMP DP  RH WIND       PRES   REMARKS
MILWAUKEE      SNOW      26  22  84 E13       29.94S VSB 1/4 WCI  15  
WAUKESHA       SNOW      23  19  86 E9        29.93R VSB 1/2 WCI  13  
MILWAUKEE/TIMM CLOUDY    25  19  80 E10       29.95R WCI  15          
RACINE         SNOW      26  23  88 E14       29.94S VSB 1/4 WCI  14  
KENOSHA        SNOW      27  25  92 E13       29.92R VSB 1/2 WCI  16  
FOND DU LAC    CLOUDY    24  16  71 E12       29.97R WCI  13          
SHEBOYGAN      CLOUDY    23  16  74 E14G21    29.99R WCI  11          
WEST BEND      CLOUDY    23  19  86 E13       29.95R WCI  11          
JUNEAU         LGT SNOW  22  19  87 NE12G18   29.94R VSB 1   WCI  11  
$$

LSZ147-162-171500-
LAKE SUPERIOR
  
STATION/POSITION TIME  TEMP    WIND        PRES    WAVE
                       AIR SEA DIR/SP/G            HT/PER
                 (UTC) (F)     (DEG/KT/KT) (MB)    (FT/S)
DEVILS ISLAND    1300   17      80/ 16/ 18 1023.0R
SAXON HARBOR     1330   -3     190/  2/  3 1021.0R
$$
 
LMZ867-665-643>646-171500-
LAKE MICHIGAN
  
STATION/POSITION TIME  TEMP    WIND        PRES    WAVE
                       AIR SEA DIR/SP/G            HT/PER
                 (UTC) (F)     (DEG/KT/KT) (MB)    (FT/S)
NORTHPORT PIER   1340   18      20/  5/  6 1019.0S
KEWAUNEE LAKESHO 1330   24     100/ 17/ 20 1015.9F
SHEBOYGAN LAKESH 1300   24      80/ 21/ 23 1016.2F
PORT WASHINGTON  1330   27     100/ 15/ 20 1016.3R
MILWAUKEE LAKESH 1330   27      80/ 18/ 20   N/A
KENOSHA   LAKESH 1300   26     110/ 17/ 22 1013.2
$$

TC  - TEMPERATURE IN CELSIUS
VSB - VISIBILITY IN STATUTE MILES
WCI - WIND CHILL INDEX
HX  - HEAT INDEX